Location: Staunton
(38.1490°N, 79.0720°W)
Time: 14:25:51
(UTC-04:00)

ISS - Pass Details

Date: 24 May 2017
Orbit: 402 x 408 km, 51.6° (Epoch: 29 May)

Event Time Altitude Azimuth Distance (km) Brightness Sun altitude
Rises 23:38:10 0° 280° (W) 2,327 0.5 -26.8°
Reaches altitude 10° 23:41:06 10° 309° (NW) 1,468 -0.2 -27.0°
Maximum altitude 23:42:48 13° 340° (NNW) 1,284 -0.4 -27.2°
Drops below altitude 10° 23:44:29 10° 11° (NNE) 1,468 -0.3 -27.3°
Sets 23:47:26 0° 40° (NE) 2,329 0.4 -27.5°
